Theta_e
318 317 317 317 316 313 313 312 312 311 309 309 307 307 302 298 300 309 313 313 307 295 289 301 299 294 294 297 296 296 296 294 296 295 295 295 295 294 294 295 294 295 295 294 293 291 291 293 289 290 289 291 294 294 293 293 297 293 292 296 296 317 291 289 292 289 291 293 294 297 296 295 297 294 293 294 293 292 291 290 297 298 299 296 292 293 299
318 317 317 317 315 312 312 312 312 311 309 307 305 301 299 300 300 306 313 310 302 297 293 291 289 292 300 295 295 297 296 295 294 294 294 294 293 293 294 295 297 297 295 295 294 295 288 294 291 290 293 292 295 293 294 297 300 299 298 296 299 294 293 289 285 284 286 287 290 292 294 294 292 292 292 296 298 298 296 300 299 299 299 297 296 291 299
317 317 317 316 314 312 312 312 312 312 310 309 306 306 304 303 304 305 310 310 302 298 292 292 290 295 296 292 293 293 294 295 295 295 294 295 294 294 293 296 296 295 295 296 297 297 291 291 293 291 293 293 295 296 294 299 300 307 310 313 310 294 295 289 284 281 281 281 282 285 287 288 290 294 295 300 303 303 303 300 295 290 298 297 294 295 306
317 317 317 316 315 313 312 312 312 311 310 306 309 304 303 301 296 300 299 303 296 297 297 293 294 293 296 291 292 292 292 295 294 295 295 295 295 294 296 296 296 296 295 295 295 296 296 292 292 290 292 291 293 294 295 298 302 317 313 313 305 296 299 292 288 284 282 283 285 290 299 291 291 293 294 299 301 302 301 298 295 293 295 298 298 304 307
318 318 317 316 315 313 312 312 312 311 308 309 307 305 304 301 296 297 294 302 295 297 291 294 293 293 294 289 292 292 292 292 295 296 296 297 295 295 296 295 294 295 295 294 293 296 294 295 293 293 293 293 292 294 296 297 307 317 308 308 299 295 291 294 295 294 292 290 291 292 297 290 291 292 294 295 300 301 302 299 294 297 300 291 301 309 309
318 318 318 316 314 313 313 312 311 311 308 307 308 303 301 294 299 301 305 292 292 293 293 302 299 297 295 293 293 292 291 291 292 295 296 296 298 295 296 294 293 296 296 293 292 294 293 292 291 293 295 293 294 295 296 296 302 305 297 302 297 292 292 296 296 294 295 293 291 291 290 290 291 290 291 297 297 301 301 298 301 305 298 296 302 309 309
318 319 319 318 314 313 313 313 311 310 308 307 310 301 302 302 301 303 308 299 296 296 302 305 301 295 295 297 293 290 290 291 293 293 293 295 296 294 289 292 293 293 297 293 292 293 288 290 293 292 293 294 292 290 292 296 295 296 295 297 301 294 290 299 295 293 292 292 293 291 289 290 290 292 296 300 299 300 301 303 304 303 300 300 308 309 311
318 319 319 318 315 314 314 312 311 310 308 309 307 305 301 297 300 300 304 304 302 302 301 296 292 290 297 290 293 291 291 292 293 294 294 292 295 296 293 293 294 293 292 292 289 294 294 293 291 293 293 290 293 293 292 291 294 294 293 296 298 295 293 302 293 290 291 292 294 293 290 289 290 290 291 294 303 305 306 306 307 309 307 309 310 309 309
318 319 319 318 316 314 314 313 312 310 308 310 305 306 309 308 304 305 301 298 300 305 298 294 292 290 291 288 296 298 293 293 295 294 295 296 295 295 293 294 295 294 293 292 293 294 297 297 294 295 292 290 295 292 293 295 292 292 292 294 296 297 295 295 288 286 288 290 291 292 290 288 289 289 290 291 292 302 303 303 306 305 305 307 308 306 307
318 319 319 318 316 314 314 313 312 310 308 306 303 306 307 307 307 307 302 298 308 298 299 291 289 290 290 292 295 295 292 294 293 293 296 295 299 296 295 296 292 291 292 292 295 296 295 296 295 293 293 297 297 296 294 294 294 292 292 293 293 292 292 292 287 283 287 291 292 291 287 286 287 287 289 291 294 296 303 306 311 310 311 307 305 307 314
318 319 319 318 317 316 315 314 313 311 309 303 304 304 306 308 307 305 300 300 294 297 296 292 290 296 294 296 293 295 294 295 294 291 292 295 295 298 297 295 291 289 292 296 298 298 297 296 296 296 296 294 294 293 296 297 299 297 293 291 292 295 291 290 291 285 285 289 291 292 286 281 284 291 293 293 296 303 303 304 306 311 310 307 309 312 316
318 318 319 318 317 316 315 315 313 311 310 307 305 305 307 308 302 301 295 295 295 296 292 293 294 296 294 296 295 295 295 296 296 296 294 294 296 296 295 294 292 291 298 301 303 303 302 302 298 298 298 297 296 296 296 294 294 298 293 295 292 295 289 290 292 286 286 288 288 287 282 283 292 294 295 295 293 304 304 304 303 302 306 310 312 314 315
317 318 318 318 318 316 315 315 314 312 311 309 306 304 306 309 308 303 299 295 294 297 294 295 298 294 294 296 295 295 296 297 298 297 294 295 296 295 297 296 296 297 303 302 301 299 295 293 292 293 294 295 294 295 295 294 293 294 294 294 293 290 289 291 291 291 289 285 283 278 281 289 293 293 297 303 302 304 306 304 304 303 304 311 312 314 315
317 318 318 318 318 317 315 315 314 314 311 310 305 303 303 305 307 303 300 296 298 296 299 293 296 298 298 294 294 295 295 296 295 295 295 298 295 296 297 301 299 302 299 301 298 292 290 287 285 286 290 287 287 289 293 293 294 293 294 294 296 293 289 288 286 291 287 286 283 286 289 290 291 292 295 295 292 293 298 297 300 304 306 311 312 313 315
316 317 318 319 318 317 316 315 315 314 313 309 306 304 303 303 308 306 304 300 298 298 293 292 295 299 299 297 294 292 292 293 295 294 295 298 297 299 299 300 300 300 300 297 293 292 289 286 284 283 284 281 281 286 290 291 293 294 294 294 292 291 292 289 285 287 291 287 284 282 280 280 285 292 295 298 298 299 298 301 299 304 308 311 313 312 314
316 317 318 318 318 317 316 315 315 314 313 309 306 303 305 306 307 308 306 300 294 291 296 303 303 301 296 297 296 294 292 290 293 289 290 292 296 297 299 299 300 301 300 296 292 290 289 287 284 282 284 285 287 287 286 290 289 292 292 292 292 291 291 289 286 286 286 288 285 283 282 284 289 293 297 299 299 300 299 301 295 301 305 312 313 313 313
316 317 317 318 318 317 316 315 314 313 313 309 307 304 304 310 311 308 307 302 298 298 299 306 303 301 294 296 298 296 293 291 290 291 290 291 296 297 298 300 300 301 297 293 291 288 287 285 283 283 283 288 287 286 289 283 283 286 290 288 288 287 287 285 284 286 288 285 286 286 287 289 296 296 298 300 299 300 302 293 291 300 304 311 312 312 313
315 317 317 318 318 317 316 315 315 314 312 311 308 305 306 307 311 308 304 299 297 297 298 305 301 295 296 296 294 298 298 297 297 295 291 296 295 296 296 299 296 299 300 294 292 285 285 284 287 284 285 292 292 289 282 284 283 284 285 285 283 284 285 283 282 284 289 289 283 287 291 297 300 299 300 302 301 301 293 288 295 302 303 310 312 312 313
315 316 317 318 318 317 316 315 315 314 313 309 308 306 307 308 311 307 302 299 295 296 300 304 308 304 306 303 300 300 300 299 297 294 294 294 298 301 300 300 300 296 296 292 287 287 286 288 287 282 285 288 290 287 287 283 283 286 287 285 283 283 286 289 282 282 283 282 284 283 288 295 299 302 303 303 297 291 286 293 298 301 307 311 313 311 312
315 316 317 317 318 318 316 315 315 314 313 311 308 305 309 308 310 312 307 299 298 297 299 305 308 306 309 303 299 300 300 299 295 293 289 291 296 299 294 291 295 296 294 289 289 289 288 289 289 289 285 284 288 290 284 287 289 286 287 287 285 288 284 282 281 282 282 280 280 282 282 294 302 302 299 302 295 289 290 295 300 302 310 311 311 311 309
315 316 316 317 318 317 316 315 315 314 313 313 307 304 305 308 311 311 311 302 299 296 299 302 308 307 308 306 304 305 300 300 298 298 296 296 300 291 284 288 293 294 293 290 289 291 289 288 288 290 291 289 291 290 285 281 285 292 291 288 288 290 284 282 282 283 280 280 282 282 288 295 301 300 295 298 301 301 299 299 301 304 309 311 309 309 309
315 316 316 317 317 318 316 315 314 314 313 313 308 304 302 304 308 313 313 305 299 296 298 302 308 309 311 312 311 305 306 307 307 304 301 298 298 299 294 294 293 295 297 293 293 292 293 291 291 288 290 291 288 287 285 282 284 287 291 290 284 291 291 286 287 289 288 288 284 289 293 297 301 302 301 302 304 303 303 301 301 304 306 306 311 309 309
314 315 316 316 317 318 316 315 314 314 313 313 309 302 301 303 307 312 308 308 305 305 306 305 306 306 314 317 316 313 310 309 309 306 302 298 298 298 298 297 300 302 302 297 296 292 293 289 292 290 288 291 290 287 288 284 284 287 290 292 291 294 294 292 293 292 294 295 295 298 300 301 302 303 303 302 302 303 303 303 303 301 302 305 310 308 308
314 315 316 316 317 317 316 315 314 314 313 313 311 306 305 303 306 309 306 302 299 299 300 303 301 302 302 305 309 310 308 308 315 309 307 305 298 297 299 302 304 301 300 301 297 295 293 292 294 290 289 291 288 284 285 287 289 291 290 292 292 293 294 291 291 292 289 288 294 298 298 300 302 302 304 304 304 302 302 301 300 302 304 304 306 306 306
314 314 315 316 317 317 316 315 314 313 313 312 311 308 307 305 303 307 302 298 296 290 293 297 301 308 310 311 311 306 305 310 310 309 306 305 302 297 300 305 306 302 301 302 299 298 294 294 294 290 289 294 293 287 290 288 289 292 288 288 289 293 298 292 292 290 290 291 295 298 300 301 302 302 302 302 303 302 303 302 302 302 304 305 308 308 307
314 314 315 316 316 317 315 314 314 313 313 312 312 306 303 303 304 305 307 304 299 295 296 297 303 309 310 310 309 310 313 307 307 310 310 307 307 310 309 308 304 307 306 304 299 296 293 292 291 289 289 293 295 290 291 292 292 293 292 294 295 296 300 291 293 291 293 295 298 297 298 300 302 303 304 304 303 301 303 303 302 302 302 303 305 309 309
313 314 315 315 316 316 315 314 313 313 312 312 310 306 306 307 306 306 305 306 300 296 296 297 297 303 308 307 313 312 312 305 308 309 309 309 309 308 308 306 305 301 299 300 298 295 292 291 291 293 291 295 296 294 295 295 294 294 293 295 297 294 290 295 292 288 287 291 296 297 296 293 298 301 302 304 305 305 306 306 305 304 303 302 301 302 305
313 314 314 315 316 316 314 313 313 312 311 312 309 307 306 305 306 308 307 307 305 296 295 293 296 302 306 308 313 314 315 312 307 307 306 308 307 307 306 304 300 300 298 297 298 294 290 293 295 295 294 297 296 295 295 295 294 290 289 291 296 295 296 291 289 287 291 293 294 296 295 296 299 301 303 304 305 305 305 305 306 306 306 303 302 301 302
313 314 314 315 316 314 313 313 312 312 312 309 304 306 307 307 309 310 310 311 302 296 295 297 299 299 299 304 312 313 316 312 311 309 309 310 310 309 307 304 302 300 301 299 297 293 292 296 298 296 296 297 294 292 294 291 286 287 291 296 297 299 298 299 298 292 297 298 299 298 298 300 301 302 303 305 306 306 305 306 307 307 306 305 305 304 302
313 313 314 315 315 313 313 312 312 312 311 304 304 300 298 305 307 308 310 311 306 303 298 294 295 299 304 310 309 311 314 316 314 313 311 310 310 309 306 306 306 306 302 300 296 297 296 293 296 299 302 302 296 292 290 287 287 291 294 296 299 298 300 301 299 301 301 302 300 301 300 301 302 303 304 305 308 307 305 305 307 307 308 307 305 305 305
313 313 314 315 314 313 313 312 312 311 308 304 301 295 291 295 304 309 310 309 307 306 298 293 295 299 304 312 311 310 312 316 313 313 314 311 309 308 308 306 307 308 299 296 296 298 298 296 295 299 301 305 298 290 290 288 287 287 296 297 298 299 298 300 300 301 302 302 304 304 304 303 304 304 304 305 306 307 307 307 311 314 312 309 306 305 305
313 313 314 314 313 313 313 312 312 311 305 304 303 302 300 303 307 307 310 310 308 306 298 294 295 295 295 300 306 315 316 315 311 310 307 312 305 308 309 307 306 306 303 297 299 298 296 297 297 299 296 303 300 290 289 286 287 290 295 297 298 298 299 299 300 301 301 303 303 303 299 299 301 303 302 305 307 308 308 307 307 307 311 309 308 307 306
313 313 314 314 313 313 312 312 312 311 305 306 309 310 310 310 310 311 311 307 303 297 294 293 292 295 295 299 304 308 312 307 304 301 303 309 305 303 303 308 303 303 314 303 294 294 296 293 292 296 299 299 296 292 287 289 289 292 295 298 298 298 299 301 302 300 300 300 301 300 297 299 301 303 303 304 305 307 307 308 309 309 309 308 307 307 306
313 314 314 313 313 312 312 312 312 311 309 305 305 306 309 312 309 309 307 306 304 302 298 295 292 291 294 299 301 304 309 301 300 298 298 307 304 301 302 300 302 301 302 297 296 297 298 300 293 296 298 297 293 290 289 291 291 293 296 297 298 298 298 298 298 299 299 299 300 301 301 301 301 301 302 302 302 303 306 306 308 307 307 308 307 307 306
314 314 314 313 312 312 313 312 306 307 304 302 301 304 306 311 309 311 312 306 298 296 295 297 290 287 292 292 291 297 306 302 302 299 298 303 306 302 300 297 296 295 298 303 297 293 295 296 296 296 292 292 291 286 288 291 295 295 297 297 297 298 299 299 300 297 298 298 298 298 298 299 300 298 298 299 300 301 303 303 304 305 304 304 306 308 309
314 314 313 312 311 311 307 309 307 308 306 305 306 316 316 313 312 308 309 310 306 294 290 293 294 290 290 288 291 300 310 301 300 300 301 302 301 303 298 296 294 297 301 296 293 293 294 302 298 291 290 287 287 291 292 292 295 296 298 298 297 299 299 298 298 298 296 297 297 297 298 297 297 297 296 297 297 298 300 301 301 302 303 302 303 304 305
312 311 312 310 308 307 300 304 310 309 307 308 312 318 317 318 313 310 308 306 308 307 297 293 292 295 292 292 292 298 301 296 296 297 295 295 295 299 292 289 290 302 296 291 293 293 297 302 289 288 287 283 285 292 296 297 298 298 298 299 299 298 298 297 299 296 296 296 296 294 296 296 296 295 296 297 297 298 299 300 300 301 301 301 302 304 303
311 311 307 308 307 299 300 303 308 310 318 318 316 307 304 307 302 300 300 298 304 309 298 296 293 293 297 295 295 301 299 295 297 295 295 297 295 294 294 294 296 301 291 291 293 296 295 293 292 290 290 293 294 295 296 297 298 297 297 297 297 297 297 297 297 296 295 294 293 294 297 295 295 296 297 298 298 299 299 300 300 300 300 302 303 304 304
310 308 307 306 303 298 299 306 311 318 312 312 308 303 300 300 294 294 296 296 297 295 297 298 297 295 295 295 296 301 301 297 294 293 294 297 295 291 295 290 296 293 282 287 294 301 292 286 287 286 288 291 292 296 298 298 296 297 297 297 299 296 298 298 298 297 296 295 296 296 296 295 295 296 295 296 297 298 299 300 300 301 302 302 302 304 304
308 306 303 301 300 304 311 311 316 312 310 303 301 300 299 300 294 291 294 291 289 294 299 295 295 297 299 298 298 299 305 297 292 292 290 296 299 291 295 291 291 290 284 283 286 294 289 284 283 282 285 287 290 292 294 298 298 297 296 297 298 298 298 298 300 299 298 298 297 297 297 297 297 297 297 298 298 298 299 299 300 301 301 301 304 304 303
306 307 305 302 303 304 305 307 309 304 300 296 294 295 294 294 296 296 296 290 288 290 298 297 300 299 303 298 298 297 303 307 298 295 293 293 299 298 289 288 294 287 284 282 292 292 286 284 284 282 285 286 288 290 294 295 297 298 297 297 298 297 298 297 298 298 298 298 298 298 298 299 299 299 299 300 299 299 298 299 299 300 300 300 302 303 304
305 302 302 303 305 305 305 304 301 300 299 295 291 288 288 293 297 296 295 292 291 294 300 300 297 296 297 303 300 299 301 304 301 301 293 292 299 293 290 291 291 286 282 286 292 285 285 279 272 278 286 286 288 291 294 295 295 297 296 296 299 300 299 297 297 298 298 298 298 298 298 297 297 298 298 298 298 298 299 299 300 299 301 301 303 302 303
308 307 305 301 302 302 298 294 297 297 290 291 285 286 288 287 291 293 293 297 300 297 298 305 303 302 304 306 302 303 301 304 299 297 292 290 296 292 288 286 286 282 287 294 288 284 281 273 276 285 285 288 290 293 294 293 294 295 296 296 296 296 297 297 296 297 297 297 297 297 298 297 297 298 299 299 298 298 299 301 301 299 298 298 299 301 302
308 308 303 299 298 299 300 291 301 298 290 283 284 284 286 287 288 293 293 293 295 298 299 300 299 300 297 301 299 300 301 301 300 293 293 294 291 290 288 285 285 288 294 289 287 284 282 283 287 284 286 290 294 293 293 296 295 294 296 296 296 296 295 295 295 295 296 297 297 297 297 297 297 298 297 297 297 296 297 297 299 302 301 300 299 300 301
301 292 287 292 291 293 290 286 289 286 286 286 288 287 288 286 288 287 289 294 299 298 298 298 299 299 299 301 300 299 298 297 299 295 292 294 290 287 288 285 287 290 288 284 284 283 284 286 287 288 289 291 293 294 295 293 293 295 295 295 295 295 295 295 295 296 296 296 297 298 297 298 298 297 297 297 298 297 297 297 298 300 299 299 300 300 301
292 288 287 288 287 287 285 283 282 286 289 291 291 292 291 291 289 292 297 300 299 299 301 302 300 301 298 299 296 296 295 295 294 293 293 288 287 286 289 291 290 287 283 283 282 281 285 287 286 290 292 293 293 294 293 293 294 294 294 294 295 296 295 296 296 296 297 297 297 297 297 298 297 297 297 298 298 298 298 298 299 299 298 298 298 300 302
298 296 284 285 285 285 290 287 287 289 291 293 295 296 296 296 297 298 299 301 299 300 301 301 300 301 296 297 296 295 295 294 293 294 291 289 288 288 293 288 285 282 280 276 279 281 284 285 286 290 291 292 293 293 293 292 294 293 294 295 296 295 296 296 296 296 297 298 299 299 299 298 298 298 298 297 298 298 299 300 299 299 299 299 300 301 302
290 288 289 288 285 286 287 289 291 294 295 298 296 297 298 299 300 300 301 302 302 302 301 300 300 299 298 297 296 293 293 292 293 292 294 292 289 285 280 284 282 283 282 280 282 283 283 285 289 291 292 294 293 293 293 293 293 293 294 294 294 295 295 295 296 297 299 299 299 299 299 300 299 299 298 298 298 299 299 299 299 299 299 299 300 301 301
293 287 291 284 287 289 290 293 296 294 295 295 297 298 299 300 300 301 303 304 302 302 301 298 298 296 292 294 292 290 290 290 288 286 291 287 286 282 282 279 281 279 285 286 284 283 285 288 292 293 293 293 292 294 294 294 294 294 295 295 295 295 295 296 298 299 300 300 300 299 299 300 301 300 300 299 298 299 300 300 299 299 300 300 300 300 301
295 292 292 288 292 291 292 294 295 292 292 292 295 298 298 300 299 302 304 304 302 301 300 300 298 292 293 291 285 283 284 286 288 285 284 283 284 283 283 280 280 282 279 283 286 287 288 291 293 292 293 295 296 294 293 293 298 299 296 295 295 295 296 297 299 300 300 300 300 300 300 300 299 298 298 297 299 299 299 299 299 299 299 300 301 301 302
292 290 289 292 293 289 293 292 291 291 291 292 293 294 296 299 299 300 303 303 300 299 297 295 292 288 287 282 281 284 284 287 286 284 284 283 284 284 282 283 284 283 284 286 289 290 292 294 294 294 293 294 295 293 293 296 296 295 294 294 294 294 295 296 298 300 301 301 301 301 299 298 298 298 298 298 298 298 297 299 301 301 300 301 301 302 302
287 289 290 293 296 295 297 296 295 295 296 296 295 296 299 300 300 300 305 302 300 298 296 293 290 285 283 283 284 287 289 286 285 285 285 285 287 284 282 284 285 286 287 288 290 293 295 294 294 297 294 295 296 293 293 294 294 294 294 294 294 294 295 296 298 300 301 301 301 300 299 299 299 298 299 299 298 296 296 296 299 302 302 301 302 303 303
Wind_Speed
19 20 20 21 22 21 22 22 22 23 23 6 5 2 3 3 1 4 2 3 3 3 2 1 1 1 2 3 2 1 1 1 2 3 4 2 2 2 4 1 1 2 0 0 3 1 2 1 1 1 1 1 1 5 7 6 2 1 2 0 1 3 3 2 2 5 6 5 3 2 2 1 4 4 3 4 4 6 6 5 7 7 3 3 2 1 2
19 20 20 21 21 21 21 20 21 20 18 3 3 3 2 1 1 5 2 2 3 3 1 2 3 3 4 1 2 1 1 2 4 3 3 2 3 1 1 3 1 1 1 3 2 1 2 1 2 1 0 2 2 4 7 6 3 3 2 0 2 0 1 2 1 2 3 4 4 4 3 5 2 1 1 1 3 6 4 6 2 5 6 6 8 5 3
19 19 20 20 21 22 21 20 20 19 17 4 0 2 0 1 1 2 7 6 5 0 3 3 2 2 1 2 1 2 3 1 1 1 4 2 0 0 1 0 1 2 1 2 1 4 2 2 3 1 0 1 2 5 8 5 4 2 3 4 2 5 0 1 1 4 5 5 3 1 0 1 4 0 0 0 5 11 6 4 1 2 2 4 3 2 2
19 19 20 20 21 22 22 21 20 19 16 5 1 0 2 2 1 4 4 6 5 3 0 2 1 1 0 2 1 1 1 1 4 2 2 2 2 4 1 1 3 2 3 5 6 6 4 3 0 2 1 2 2 1 7 6 3 7 4 5 2 2 1 2 3 5 3 1 3 3 0 1 1 0 1 2 2 3 6 5 5 6 4 5 3 6 10
19 19 19 20 20 22 22 22 21 19 14 3 2 0 1 1 3 1 2 6 5 1 3 3 2 2 2 2 0 2 1 1 2 4 2 5 2 2 5 2 2 1 4 2 4 3 2 6 3 4 1 2 2 5 3 6 11 12 3 7 3 3 3 4 3 3 2 3 4 4 3 2 1 0 1 1 3 4 7 7 6 5 11 3 1 9 16
19 19 19 19 20 21 22 23 22 20 15 0 0 2 2 1 1 1 1 2 1 3 3 6 6 2 1 0 0 0 2 4 1 3 2 0 4 2 3 7 5 1 2 3 3 4 2 4 2 4 0 2 5 4 5 5 9 7 2 4 4 3 2 5 1 1 1 0 3 5 1 1 1 2 2 2 2 4 5 2 3 10 8 9 9 13 13
19 19 19 19 19 20 21 22 23 22 17 3 2 3 2 2 0 0 1 0 2 3 4 4 1 2 1 2 3 1 4 4 0 0 2 4 5 3 2 6 7 4 1 4 2 0 2 3 1 0 2 2 3 4 4 2 8 7 4 5 2 3 2 2 1 1 5 8 8 8 5 2 5 7 6 4 1 1 6 4 2 2 0 2 14 12 6
19 18 18 18 18 19 20 21 23 25 19 1 4 3 1 2 1 1 4 2 1 2 2 1 2 3 3 3 1 1 0 2 0 2 3 1 2 2 7 2 6 6 6 4 4 0 2 2 2 1 1 1 1 0 1 2 5 5 4 2 3 3 1 4 2 4 5 6 11 8 8 5 7 7 9 8 5 5 4 5 4 9 9 10 14 12 9
19 18 18 17 17 18 19 19 21 25 18 5 5 2 2 1 1 0 1 2 2 1 2 1 1 1 2 4 0 3 0 4 3 2 0 1 1 1 4 3 1 4 7 7 2 2 1 1 1 2 2 3 1 1 2 1 1 5 4 4 5 5 1 3 3 4 4 4 11 10 5 3 6 7 10 9 6 4 0 3 2 6 9 11 12 9 7
19 17 17 17 16 17 17 17 19 21 16 5 1 3 2 1 0 1 1 0 1 2 1 1 2 1 2 2 1 2 3 2 1 4 2 3 1 3 4 2 6 3 7 5 2 3 3 3 4 2 2 1 2 2 1 1 1 1 1 0 2 1 1 1 2 3 2 5 4 7 6 4 6 7 7 4 3 2 0 2 1 4 17 13 12 11 9
19 17 16 16 15 16 17 16 16 17 11 6 4 2 3 3 2 3 2 0 3 3 1 3 4 1 0 1 3 2 2 1 0 5 1 3 3 1 4 3 4 1 2 2 3 3 4 2 1 4 6 5 6 4 5 10 6 1 1 1 1 1 3 2 1 3 2 7 11 4 4 3 1 3 2 2 2 1 1 1 1 9 3 2 1 6 14
19 17 16 15 15 15 15 15 13 12 9 3 2 2 3 0 1 1 1 2 1 2 3 0 0 1 2 0 3 2 3 5 1 4 6 0 1 1 5 5 4 3 2 1 3 1 2 1 2 1 7 7 7 8 11 9 6 5 2 2 1 2 2 1 1 2 1 5 6 4 2 3 2 5 3 4 6 2 6 6 5 4 3 5 10 13 13
19 17 16 15 14 14 15 14 13 11 9 3 2 2 2 0 0 1 1 3 1 3 4 1 2 2 3 4 8 4 4 3 4 5 4 3 1 2 1 2 1 1 1 1 5 6 2 0 1 1 2 5 5 7 12 10 7 7 6 3 2 1 3 1 3 1 2 4 4 2 1 4 5 6 4 4 3 3 7 5 4 4 3 7 12 13 12
19 18 17 16 14 13 14 14 13 12 10 6 1 3 2 1 1 2 1 1 1 1 2 1 5 5 4 5 5 2 3 5 1 2 3 0 2 1 1 1 0 1 1 3 7 3 2 4 1 3 3 6 3 3 3 1 4 6 8 8 3 5 3 3 2 1 3 2 1 3 4 3 5 4 5 4 3 3 1 1 1 3 2 6 13 13 14
19 18 17 15 14 13 14 15 14 14 13 10 1 2 3 2 2 1 1 1 1 1 1 2 2 2 1 0 1 4 5 2 6 2 1 1 1 0 0 1 2 3 1 1 2 5 2 2 1 2 2 3 0 1 3 1 3 2 2 2 4 2 1 2 4 1 3 5 2 5 5 1 3 2 5 3 2 2 3 2 2 3 2 5 14 15 16
18 18 17 15 15 14 14 15 15 14 13 12 2 3 4 3 1 1 1 1 3 2 3 0 2 2 1 1 1 7 5 3 0 1 3 4 1 2 0 1 2 2 4 6 2 3 1 2 2 2 0 0 1 0 0 3 2 2 3 4 6 6 7 5 4 2 3 3 4 2 3 2 3 5 6 5 1 2 3 2 3 1 1 4 10 16 16
18 18 16 15 15 13 14 15 15 14 12 13 5 3 2 0 0 1 0 1 2 1 2 0 1 2 3 3 3 4 1 3 2 2 1 1 1 1 3 3 2 6 3 3 5 2 3 4 2 1 2 1 0 0 0 1 1 3 5 6 8 7 6 5 5 3 1 4 5 6 4 1 2 4 5 5 4 1 3 2 5 4 3 5 7 14 17
18 17 17 16 15 14 14 14 15 14 13 12 5 2 4 3 1 1 2 2 1 1 2 1 2 2 2 2 3 1 2 3 3 2 3 1 1 1 2 3 2 2 2 2 1 5 2 2 1 1 1 1 1 1 0 1 0 1 1 1 2 4 3 5 2 2 1 3 1 2 2 3 3 5 9 8 2 2 4 6 2 2 4 4 8 8 10
17 17 16 16 15 14 13 13 14 16 14 13 7 0 4 2 3 1 3 3 2 2 4 3 1 1 0 2 2 2 1 1 4 4 1 2 0 1 0 0 0 1 7 3 4 3 1 0 0 1 1 1 1 0 1 1 0 0 1 2 2 1 1 0 2 2 1 0 1 3 2 3 3 7 8 4 0 0 2 4 1 3 5 3 8 11 7
16 17 16 15 14 12 12 12 14 14 14 12 7 2 6 4 2 3 1 0 1 1 4 2 2 2 1 1 1 3 1 5 2 5 4 1 2 1 2 1 3 2 2 3 2 1 2 1 0 0 1 0 0 2 1 0 0 1 0 0 2 0 1 1 1 1 1 3 3 2 2 1 3 13 4 2 2 3 3 3 2 3 6 10 6 8 9
16 17 16 15 13 12 10 11 12 13 14 13 7 2 3 0 1 3 1 3 1 1 1 1 0 4 1 1 1 1 4 4 1 4 2 1 0 3 2 3 1 1 0 1 2 0 2 0 1 0 0 1 0 0 1 0 1 1 1 2 1 1 2 0 2 4 1 1 0 0 2 6 5 4 1 3 1 4 2 1 0 1 2 9 8 3 6
15 16 16 15 14 11 8 10 11 12 13 13 8 1 1 3 1 3 1 1 1 1 2 2 1 3 5 3 3 3 1 1 2 6 7 3 2 0 2 3 2 1 1 3 2 1 1 1 0 1 1 1 2 2 1 2 1 2 0 1 1 2 0 4 1 1 1 0 1 3 3 4 4 1 2 3 4 2 4 3 2 4 1 1 8 8 6
14 15 15 15 13 11 8 9 10 11 12 13 7 2 2 5 6 6 1 1 1 1 2 2 2 2 2 2 2 3 4 0 4 3 6 6 1 1 1 1 0 1 1 0 2 4 2 5 0 3 3 0 1 1 0 1 1 1 1 1 2 1 2 1 1 1 1 1 3 3 3 6 9 4 2 4 7 7 3 1 4 0 2 1 9 9 9
14 14 15 15 13 11 7 9 10 10 10 11 6 2 3 3 5 6 3 3 2 0 1 2 3 1 2 3 4 5 3 2 1 1 1 4 5 0 1 1 1 1 1 1 3 2 3 2 1 2 2 1 3 2 1 2 0 1 0 1 1 2 1 1 1 1 3 1 5 7 4 5 9 10 9 6 6 5 5 5 4 0 2 8 6 8 7
13 14 14 14 13 11 8 8 8 9 9 11 8 2 3 4 1 2 1 0 3 2 2 2 2 2 3 4 3 1 1 0 2 1 2 3 4 4 3 1 3 3 3 2 1 5 3 2 0 1 2 1 2 0 0 2 1 1 1 1 1 2 1 3 1 1 1 1 2 2 1 2 4 7 9 10 11 11 8 5 5 3 3 6 8 9 10
12 13 14 14 14 11 7 6 8 8 9 11 8 3 1 3 3 1 1 2 2 2 3 1 0 2 4 3 3 4 6 2 4 6 6 1 2 7 10 2 3 4 4 2 4 5 3 4 3 1 3 1 1 1 2 2 1 0 1 0 1 2 2 0 0 1 1 1 2 4 3 3 9 8 7 6 6 6 9 10 10 9 8 6 5 7 11
12 12 13 13 12 9 4 6 8 9 9 8 5 1 3 4 3 1 1 0 1 1 2 2 3 5 4 4 3 3 3 2 5 7 7 8 6 5 6 6 7 4 5 5 3 5 4 3 2 0 1 0 1 1 1 0 0 0 0 2 2 1 2 1 1 2 1 0 1 1 1 1 5 6 6 7 7 7 10 11 12 11 9 8 6 4 2
12 12 13 13 12 8 3 6 8 9 9 9 5 3 3 3 2 2 1 2 1 1 2 0 1 2 2 1 5 5 6 3 6 8 6 7 8 6 7 6 5 4 2 3 1 3 2 2 1 1 0 0 1 0 1 0 1 2 2 2 1 2 1 2 2 3 1 3 3 2 2 3 2 1 3 3 5 9 11 9 9 10 9 7 8 8 3
11 12 12 12 10 3 3 6 8 9 11 7 3 0 1 4 3 2 2 0 2 4 2 1 2 4 2 2 5 5 7 6 8 7 7 7 7 7 6 5 5 4 4 5 4 3 3 1 1 2 0 1 2 0 0 0 1 1 1 2 2 2 1 1 1 2 1 2 1 4 1 0 1 2 1 2 4 9 7 6 6 8 9 10 11 9 7
11 11 11 10 5 2 3 5 7 9 9 5 1 1 1 1 1 0 4 2 1 2 1 1 3 0 2 2 4 4 5 7 8 10 9 6 6 5 3 4 4 2 4 2 3 1 1 3 1 1 1 1 1 1 2 0 1 1 2 2 2 2 1 1 1 1 1 1 2 3 3 2 2 2 2 0 1 3 5 4 4 6 6 7 10 9 10
10 11 12 9 2 1 4 5 7 6 6 2 2 1 2 1 1 1 4 3 1 2 3 3 2 2 2 0 0 4 4 4 5 7 6 4 4 3 1 3 3 1 2 2 4 1 1 1 1 1 1 2 3 2 4 3 0 1 1 0 2 3 3 3 2 2 2 0 1 1 1 2 1 1 2 3 4 2 2 1 1 3 3 4 4 5 5
9 10 10 8 3 2 4 5 6 4 2 0 1 2 1 1 1 2 3 3 1 1 1 3 1 2 0 2 1 1 1 2 2 3 3 3 3 3 5 5 1 3 3 4 1 1 1 0 1 0 1 1 4 3 3 2 2 3 1 3 3 2 2 2 2 3 2 1 1 4 4 5 1 3 3 2 2 2 1 1 1 1 3 1 1 1 1
9 9 8 3 2 3 4 6 6 4 2 5 10 11 11 13 13 9 3 1 2 2 3 3 2 1 1 1 3 2 3 2 5 4 1 2 1 2 3 3 3 4 3 3 2 1 1 2 1 2 0 1 2 2 2 3 3 2 2 3 3 2 2 2 0 1 3 3 1 1 2 2 4 5 4 3 2 2 3 4 4 4 2 3 6 6 6
8 9 7 3 3 3 5 6 6 5 3 3 1 2 1 2 1 2 2 2 2 1 2 2 2 2 1 4 2 2 2 2 1 1 1 3 0 3 1 2 3 2 4 2 1 2 1 2 2 0 1 3 2 3 1 5 5 4 3 3 3 2 2 1 2 2 3 2 2 0 2 4 4 4 3 5 7 5 2 1 2 2 3 3 4 4 4
9 7 4 3 3 4 5 4 2 1 1 1 1 3 0 3 2 2 2 0 1 2 2 1 3 4 1 2 0 2 0 2 1 1 2 1 2 1 0 2 3 3 1 1 3 1 1 1 3 3 1 2 2 0 5 5 6 5 4 3 2 1 1 1 0 2 2 2 2 2 2 1 1 4 4 5 5 5 4 5 3 1 3 3 3 3 2
7 3 3 3 5 4 1 0 0 0 1 0 1 1 3 2 2 2 2 2 2 3 2 1 1 1 4 4 2 1 1 3 1 1 0 0 1 2 2 2 2 1 1 2 1 1 1 0 1 0 1 2 4 5 6 7 9 7 5 5 3 1 1 0 2 3 2 2 4 4 5 5 5 2 3 3 4 5 3 2 4 2 2 3 5 5 2
1 3 4 4 2 1 1 1 1 1 0 1 1 4 4 2 0 1 3 2 1 2 3 3 2 3 3 2 1 3 2 2 2 2 3 2 1 2 3 3 1 1 1 3 1 0 0 1 4 2 0 3 4 5 5 5 8 7 5 5 3 2 2 1 1 1 2 4 5 4 2 3 3 2 3 3 3 3 5 4 3 2 3 4 4 4 4
3 5 2 2 1 2 1 1 0 3 1 5 4 3 3 4 1 3 2 2 2 2 3 2 1 1 0 2 1 1 2 0 1 2 1 1 2 1 1 3 1 0 1 0 1 2 2 3 1 2 5 5 4 5 6 5 5 3 3 2 1 0 0 0 1 1 2 4 4 5 5 4 4 3 2 4 4 4 3 3 3 3 3 4 4 4 3
4 1 2 1 1 1 1 0 3 3 2 0 1 1 0 1 2 2 1 1 1 1 2 1 2 2 3 1 1 2 1 4 1 2 2 2 1 1 1 0 1 1 1 1 0 0 1 2 1 1 5 4 3 5 4 6 3 3 3 2 1 2 1 1 2 1 1 2 4 4 3 4 5 6 3 3 4 3 4 4 4 4 4 3 3 3 2
1 1 1 1 2 1 2 3 4 2 1 1 1 1 0 1 2 1 2 2 1 2 0 1 2 3 4 4 5 2 0 1 1 1 2 1 0 1 0 1 0 1 1 0 2 1 2 1 1 1 6 4 6 3 3 6 6 4 4 4 3 3 2 2 3 1 2 4 4 5 4 5 5 5 5 5 5 6 6 4 5 5 4 4 3 2 3
1 1 1 1 3 1 2 3 2 1 1 1 2 3 2 0 1 1 1 2 1 3 1 2 1 1 0 1 1 1 2 2 1 2 4 2 1 2 2 0 1 1 1 1 2 2 2 1 0 3 7 3 3 2 2 3 4 3 1 0 0 0 1 2 3 3 2 4 4 4 5 5 5 5 6 6 6 6 6 7 6 6 5 5 3 4 4
1 1 1 2 1 0 1 2 2 1 1 1 3 1 1 1 0 0 1 2 2 1 1 2 1 3 3 6 4 3 0 1 1 1 1 1 1 1 1 0 1 1 1 3 2 3 2 1 1 4 6 5 4 2 4 4 3 1 0 1 0 0 0 1 3 3 2 3 4 5 5 4 6 6 6 6 6 7 7 7 8 7 6 6 5 4 4
3 2 2 1 1 2 1 1 1 2 1 0 2 1 1 0 1 2 1 2 1 1 1 0 0 1 0 2 2 0 1 1 1 0 1 1 0 2 2 1 1 0 2 0 1 2 1 2 4 8 6 3 2 4 4 3 3 2 1 1 1 2 1 1 2 4 4 3 5 6 6 6 6 6 6 5 6 6 6 7 7 7 7 6 6 6 5
2 1 1 2 2 0 0 1 0 1 1 1 2 1 1 0 1 0 0 2 1 1 2 5 3 5 2 1 3 1 1 1 2 2 1 0 1 0 0 1 2 1 0 1 1 2 4 3 8 4 4 3 2 3 3 3 3 2 0 0 0 1 2 3 3 3 5 4 4 5 5 6 6 6 6 5 6 7 8 7 6 7 7 5 5 6 6
1 3 3 1 1 1 1 2 2 2 2 2 3 2 3 2 3 3 3 2 2 2 1 2 5 3 3 2 1 1 1 1 1 1 1 1 1 0 1 2 2 1 1 2 1 1 2 5 5 2 3 4 4 4 3 4 3 2 1 0 1 1 3 3 4 3 4 5 6 6 6 6 6 7 7 7 7 6 7 8 7 6 6 6 7 7 6
1 2 1 3 1 1 1 0 0 1 2 3 4 6 4 5 4 3 5 1 2 2 6 5 4 4 3 0 3 2 0 2 2 1 1 1 2 2 3 1 1 1 0 0 1 4 7 8 5 7 7 6 5 5 4 3 2 2 2 0 2 3 2 2 3 3 5 5 5 5 6 6 7 7 8 8 7 7 7 7 7 7 7 6 6 7 7
1 2 3 1 2 1 0 1 3 4 1 3 5 5 5 4 6 3 1 2 2 5 4 2 3 3 4 1 1 1 1 1 1 1 2 1 2 0 1 1 1 2 2 2 4 6 6 7 6 5 6 6 5 4 4 3 3 2 1 1 1 3 3 4 4 5 6 6 7 7 7 6 7 7 7 8 8 8 8 8 8 8 7 8 8 7 7
1 1 1 1 2 1 1 4 2 2 3 4 3 3 4 1 0 2 2 2 2 5 5 4 2 1 1 1 1 2 1 0 1 1 1 1 1 1 0 0 2 2 2 4 7 6 6 5 6 7 6 6 6 6 4 3 3 2 1 1 2 3 4 4 5 6 7 8 9 8 8 8 7 7 7 8 8 8 8 8 8 7 7 7 7 7 7
3 2 1 2 1 2 2 1 1 2 5 3 2 1 2 2 3 5 3 1 2 3 5 3 3 3 1 0 2 1 1 0 1 2 1 1 1 3 2 2 1 2 5 6 7 6 6 5 5 7 7 6 5 6 5 4 3 1 0 1 2 3 3 4 6 7 8 7 7 8 9 8 8 8 7 7 7 9 8 7 7 7 6 7 7 7 7
0 1 1 1 1 2 2 1 1 2 4 4 1 0 0 0 2 6 2 2 1 3 2 2 2 3 0 1 0 1 1 1 2 0 1 2 3 1 1 2 3 5 4 3 4 5 4 5 7 7 6 6 5 5 5 3 2 1 0 1 2 2 3 4 6 7 7 7 8 8 9 8 7 7 7 8 8 7 6 5 5 6 6 6 7 7 7
1 0 2 2 2 2 2 1 1 1 3 2 1 1 1 1 2 2 1 3 3 2 2 2 1 2 1 1 1 0 2 1 2 3 4 4 2 3 3 4 6 7 7 5 4 3 6 7 8 8 6 6 5 5 4 4 2 1 1 1 2 2 3 3 5 6 7 6 7 8 7 7 7 7 8 6 6 6 6 6 5 5 6 6 6 7 7
0 0 1 2 1 2 2 0 0 4 6 4 2 4 2 1 3 3 0 4 3 4 4 1 2 1 2 2 4 2 0 1 0 1 0 3 3 3 4 7 7 6 7 5 3 3 5 6 6 8 8 7 6 5 4 3 2 1 1 1 1 2 3 3 4 5 6 6 7 7 7 8 8 7 6 4 3 3 4 5 5 3 4 5 5 6 7
Wind_Direction
345 343 343 341 341 343 345 346 347 350 349 12 355 322 13 60 201 254 34 318 104 68 50 275 43 316 227 274 310 275 22 128 278 40 357 35 66 28 39 351 68 10 77 91 63 88 80 34 126 185 200 150 251 292 328 296 125 95 343 20 282 106 57 24 292 315 302 315 316 21 64 97 78 18 61 108 162 175 162 171 173 134 162 86 5 186 256
345 344 344 342 342 344 345 347 350 353 3 339 307 59 98 179 268 321 297 24 102 78 231 327 316 285 314 26 306 293 172 56 7 22 356 59 348 78 8 344 83 83 61 71 47 293 90 20 87 26 134 59 280 2 11 349 44 49 305 79 272 69 342 111 22 21 345 345 349 2 338 51 63 126 311 74 100 78 105 100 53 105 206 164 135 211 235
345 345 345 342 343 344 344 347 349 356 359 358 102 33 223 319 279 250 301 355 61 207 186 142 205 261 315 6 356 343 22 2 112 90 12 347 80 71 16 141 308 24 34 79 101 37 110 112 342 107 157 193 329 353 32 346 59 317 248 259 329 81 2 94 118 144 145 161 157 202 282 266 278 282 11 240 137 133 120 112 94 109 212 123 139 183 264
345 347 346 344 345 345 344 346 350 355 2 359 55 188 29 20 152 309 336 9 21 76 33 101 117 4 202 46 306 77 76 344 355 84 79 61 21 79 269 349 72 37 37 36 19 5 28 86 269 51 346 315 320 16 341 45 11 338 18 8 81 113 81 93 149 142 169 205 220 264 197 336 117 132 112 158 82 79 89 110 116 183 186 171 226 164 148
346 348 348 345 347 346 344 345 349 355 359 352 128 19 104 157 76 358 334 340 37 99 17 37 38 225 148 94 230 19 25 260 344 10 99 12 40 45 42 348 30 10 63 87 48 360 356 4 71 355 319 272 263 308 343 345 8 343 358 355 91 64 44 3 121 104 180 203 231 259 243 203 252 328 61 343 137 130 120 141 206 162 111 251 211 176 152
346 348 348 348 349 347 345 345 347 352 1 209 110 41 11 65 274 110 194 124 307 33 309 22 338 312 96 128 68 23 57 33 65 332 61 50 28 99 346 25 8 310 155 116 74 330 26 31 17 318 287 346 335 19 347 43 336 7 21 347 93 118 73 307 37 83 114 262 292 307 112 65 86 55 15 144 221 132 139 205 187 154 155 198 182 173 170
346 348 349 351 349 348 348 347 347 350 355 146 62 79 316 105 207 174 301 184 252 164 278 331 262 331 127 95 73 50 80 82 91 178 325 25 351 63 94 346 339 2 43 99 135 74 69 338 318 138 334 40 342 14 342 322 4 24 22 19 88 91 7 300 327 332 16 18 7 5 54 52 51 30 27 16 71 154 117 93 72 57 316 167 150 157 139
346 348 350 351 350 350 350 350 351 349 348 144 61 82 54 350 32 307 360 71 282 275 344 6 53 84 353 94 317 122 87 121 333 18 70 51 359 23 78 17 27 27 47 73 85 55 156 153 78 266 128 338 91 98 180 277 326 25 30 344 360 96 310 331 305 59 349 354 0 14 12 41 67 32 37 31 36 67 74 104 99 82 49 110 131 134 133
347 347 350 352 352 352 352 355 357 352 349 49 49 47 76 263 162 155 40 10 304 3 26 36 83 70 355 78 210 76 357 95 118 89 329 124 130 50 139 161 67 19 54 56 53 251 206 199 224 247 143 108 232 109 305 156 355 350 11 10 329 52 264 40 27 68 327 356 8 333 7 41 73 37 19 11 16 61 323 120 193 119 138 132 122 130 153
346 346 351 352 352 354 354 359 3 1 351 100 37 25 300 40 281 52 110 304 6 24 332 27 63 37 221 146 202 145 227 197 66 77 25 46 50 170 152 189 93 14 43 26 315 288 212 235 250 248 211 106 89 79 129 149 118 95 53 278 52 32 90 34 30 72 292 292 3 336 352 32 15 353 342 325 299 247 287 335 82 156 143 136 161 202 159
346 347 351 351 351 355 356 0 8 15 18 56 31 331 353 31 327 354 33 39 328 32 5 356 102 210 152 320 105 51 102 90 109 110 279 15 10 79 118 129 96 142 71 281 255 236 224 209 99 77 74 69 74 47 70 52 42 52 144 50 27 81 84 111 302 109 247 317 330 340 50 41 290 246 262 214 233 182 126 200 170 144 112 190 1 126 135
345 346 349 350 350 354 356 359 8 21 39 44 176 251 244 101 84 93 83 96 274 24 97 186 190 312 78 238 104 126 118 102 111 141 118 237 259 202 86 67 89 39 256 305 7 93 122 63 42 1 48 38 52 48 51 50 13 15 53 121 93 76 81 88 250 99 325 331 3 50 27 241 244 301 286 225 228 132 118 76 66 342 318 124 116 131 143
344 345 347 349 349 353 353 356 3 11 24 33 138 251 281 341 182 127 129 112 47 338 22 357 322 86 46 85 81 42 93 68 77 89 97 129 32 18 30 113 116 237 276 357 43 52 81 262 346 19 339 357 4 31 34 24 6 1 25 55 105 67 94 171 39 28 71 42 25 87 228 246 289 285 352 16 90 54 69 48 356 16 319 146 137 137 131
342 345 346 347 347 350 352 353 359 1 8 8 226 235 282 25 30 37 69 89 10 261 205 320 18 25 18 47 96 104 72 61 35 90 87 33 112 77 348 159 232 272 134 96 59 75 57 36 37 20 338 7 1 28 324 356 51 36 14 358 39 128 110 90 73 345 152 155 107 249 296 338 6 4 13 32 354 341 43 170 267 320 295 147 134 132 130
339 343 342 342 348 351 351 351 355 357 0 357 270 277 270 242 175 135 183 92 140 295 114 109 266 286 289 334 95 73 49 5 70 27 285 308 86 176 172 298 343 30 110 77 23 33 140 103 33 53 337 37 49 281 323 40 309 79 65 8 55 59 126 220 99 333 113 129 38 1 15 307 285 246 275 263 248 223 196 118 320 320 44 142 139 141 138
337 339 339 342 347 350 349 350 353 356 1 358 42 0 262 234 191 108 135 144 117 27 320 215 206 183 117 86 159 128 158 101 76 13 1 339 288 333 288 313 320 100 45 71 84 92 58 93 185 91 149 196 223 41 308 344 349 306 34 39 53 17 71 92 112 150 48 78 146 199 157 249 217 273 287 298 276 219 171 77 311 265 194 149 150 141 146
335 336 337 342 346 347 348 348 352 357 360 15 350 337 288 265 188 184 111 48 78 151 249 244 113 114 88 64 67 45 122 135 167 100 11 340 311 300 295 344 346 54 66 77 12 61 34 47 85 138 273 239 36 230 23 59 14 331 331 8 31 27 359 19 45 45 70 142 157 210 194 182 335 276 291 307 333 224 81 58 272 223 197 153 152 152 149
333 334 337 342 344 346 348 347 352 356 360 4 354 303 283 304 282 136 56 102 103 317 279 194 92 63 73 178 134 176 89 67 55 40 110 249 347 359 309 6 8 350 84 85 31 67 68 80 48 87 91 249 164 69 93 185 65 256 332 11 354 357 348 47 131 136 103 101 286 352 320 295 295 287 300 324 314 71 103 190 245 237 147 148 136 145 152
330 333 337 340 342 344 345 346 350 356 359 4 343 145 254 245 333 92 124 73 81 80 291 279 189 130 205 98 104 160 168 154 151 100 29 30 57 260 191 198 169 312 4 127 66 85 106 323 71 117 129 315 24 229 158 44 244 280 2 18 10 355 107 337 66 45 70 160 122 209 239 241 275 285 288 279 33 329 216 237 213 157 125 128 139 138 142
326 330 335 338 340 340 343 345 348 355 358 9 17 243 271 317 317 19 37 105 101 266 282 332 34 355 298 130 114 89 77 28 42 124 151 145 277 35 28 15 330 79 1 60 47 240 93 117 155 138 44 200 274 162 58 283 160 179 155 252 114 213 103 263 38 212 69 43 63 20 110 235 57 321 348 23 28 233 224 281 302 244 151 135 130 138 145
325 329 333 335 338 340 345 345 348 353 357 5 17 4 342 316 9 25 21 142 116 59 317 289 189 252 252 272 234 155 135 143 172 90 216 153 184 90 110 194 227 80 194 121 125 285 149 117 243 187 234 119 282 50 186 354 339 252 182 197 168 197 74 303 265 189 138 74 75 148 217 285 331 359 53 328 313 307 252 145 9 306 170 131 122 119 139
324 324 330 331 333 339 346 344 347 351 357 2 10 92 279 270 339 3 322 109 113 174 212 245 237 255 243 241 240 182 168 143 221 150 138 113 341 171 190 123 168 134 186 126 45 36 7 156 91 61 71 18 17 86 157 71 137 277 318 84 21 248 160 179 62 255 95 278 206 256 261 258 290 280 257 265 285 294 244 164 157 162 220 88 127 142 134
319 320 324 328 332 335 344 344 344 352 357 360 16 73 252 314 325 336 341 91 316 317 332 351 346 302 308 254 229 213 223 184 121 116 127 110 68 29 77 89 19 199 75 95 176 150 182 124 130 150 92 62 137 120 1 140 187 332 66 242 147 278 186 193 101 264 245 195 209 268 341 354 342 346 321 331 345 346 15 323 135 233 142 125 150 148 149
314 318 321 327 330 333 341 337 342 350 356 358 11 336 305 283 282 336 12 72 108 15 344 14 64 351 295 300 313 348 48 36 318 280 174 119 112 294 337 268 155 56 22 231 178 132 186 117 165 133 98 223 90 68 117 21 332 179 134 355 340 271 147 81 73 312 69 226 340 30 359 344 5 352 351 9 14 351 349 5 0 357 116 106 95 116 127
312 316 318 323 327 329 335 337 340 346 351 353 352 303 264 297 319 13 74 41 339 94 151 316 15 237 264 270 257 301 38 171 89 74 59 82 130 144 165 183 173 141 186 183 112 59 43 108 92 59 104 241 112 234 300 110 307 146 44 274 359 356 155 68 49 44 83 236 296 293 272 79 25 23 13 355 344 349 13 10 14 356 47 93 113 108 109
308 311 314 320 322 327 337 337 337 340 345 348 355 351 2 267 298 302 86 62 104 115 114 132 282 316 318 18 17 295 293 2 50 51 46 93 150 130 144 134 41 33 95 88 76 98 117 60 86 115 114 269 88 133 203 198 147 174 114 198 212 256 355 117 227 109 293 320 290 310 281 354 23 10 20 3 350 353 15 21 30 33 32 45 87 121 135
305 309 312 317 322 329 335 332 333 337 338 336 337 234 235 279 273 345 95 203 109 9 48 143 279 299 10 36 341 337 352 29 72 65 50 28 58 73 88 98 99 41 60 44 41 110 67 92 94 131 155 192 106 147 149 25 99 209 83 287 321 47 30 231 56 36 347 182 237 14 139 281 331 0 351 357 0 42 40 30 31 26 27 15 21 40 63
305 308 311 316 322 329 336 333 333 337 336 335 324 273 236 250 274 272 250 148 51 178 166 244 26 288 295 353 7 4 357 18 83 79 65 49 41 54 90 103 102 82 42 85 41 32 41 83 129 201 137 269 76 19 52 177 72 46 8 280 298 88 210 126 107 149 294 268 253 213 152 136 232 244 319 12 26 48 47 35 31 29 29 37 52 19 12
303 308 311 315 318 318 333 334 337 337 339 340 317 258 245 238 262 298 313 263 107 100 101 241 297 17 73 270 333 14 8 47 72 78 78 60 61 54 68 71 87 127 91 75 91 104 107 150 173 120 98 211 106 299 36 310 65 194 245 302 345 289 171 51 167 158 259 220 214 178 146 177 243 251 293 358 80 75 58 43 45 48 38 36 41 41 46
304 308 311 315 309 282 335 336 339 339 347 348 26 58 25 327 217 21 351 43 118 127 84 86 81 248 298 357 354 344 14 34 66 69 63 61 54 51 36 76 62 57 99 129 146 112 197 135 281 279 309 16 119 159 72 148 121 237 275 306 281 318 348 216 174 67 39 213 180 175 209 238 221 213 242 253 344 94 109 98 69 40 42 50 43 34 25
300 305 310 315 290 309 329 337 333 356 27 342 80 55 49 52 285 132 19 30 11 115 132 98 123 279 34 71 87 0 347 15 58 69 64 68 73 56 356 76 48 63 59 5 45 120 139 38 80 357 343 53 102 97 152 136 191 303 224 29 303 327 328 307 288 266 277 306 155 181 207 264 295 298 298 297 314 9 62 32 70 85 47 42 57 65 42
296 303 308 303 264 321 320 325 324 348 34 304 130 164 177 194 276 293 342 346 16 58 61 75 22 20 282 318 311 315 16 14 50 33 19 21 16 9 33 60 99 2 109 115 168 78 54 202 105 120 80 337 73 108 95 94 155 230 292 337 316 294 287 303 338 344 6 23 22 2 354 336 4 44 293 281 289 281 246 221 190 44 16 23 306 63 110
296 303 305 267 269 311 316 313 310 301 235 259 271 276 267 266 267 269 279 320 52 78 123 82 123 188 117 216 323 355 26 14 20 33 32 339 25 16 41 3 30 45 10 80 9 121 207 118 198 67 294 31 88 97 106 181 217 232 237 271 293 281 287 277 226 113 61 11 86 157 267 280 290 300 289 297 249 247 269 277 278 275 291 343 327 332 327
293 294 282 251 297 313 312 314 316 308 315 333 72 37 327 13 56 136 135 94 103 153 78 109 87 94 212 310 101 280 42 136 231 42 76 321 170 66 1 39 358 80 352 88 237 61 349 71 93 188 343 24 35 78 309 263 246 263 289 286 271 287 288 346 35 36 1 353 336 247 228 248 265 288 331 355 346 339 351 342 346 335 345 330 298 278 261
293 287 263 293 304 313 324 338 351 54 164 284 254 261 318 354 164 176 159 112 75 346 25 21 110 87 28 14 34 271 197 88 81 346 119 315 16 110 329 59 328 84 290 76 46 101 117 226 183 93 182 333 38 10 241 246 261 267 290 296 283 288 359 15 338 355 328 339 47 48 360 3 35 29 345 337 347 339 357 348 343 9 325 297 277 283 282
292 289 317 336 356 326 359 277 192 53 33 26 179 125 138 151 93 55 66 79 118 152 93 234 77 150 144 145 179 245 74 53 348 10 21 347 8 28 90 105 63 349 266 57 190 5 107 322 69 267 313 68 229 195 230 192 193 217 213 235 251 187 220 214 273 316 329 11 45 21 26 31 71 14 347 339 351 2 16 25 4 15 312 298 285 284 279
102 43 40 38 27 55 29 207 283 188 199 222 168 115 152 174 332 46 6 25 358 99 142 163 86 211 157 195 259 275 79 137 350 47 348 55 182 297 53 43 119 341 41 4 24 103 273 37 99 111 105 180 245 230 223 198 188 186 207 216 235 246 269 292 194 130 6 357 4 1 30 22 350 339 353 345 337 343 12 19 330 320 287 284 292 304 285
83 57 58 50 51 48 27 326 269 262 179 71 69 50 351 27 31 337 356 33 292 44 348 58 147 241 33 90 148 248 73 301 40 120 325 232 76 338 61 100 216 158 156 246 250 183 94 40 46 159 262 252 258 262 241 212 214 202 173 186 197 227 191 184 117 72 33 359 350 341 348 351 328 299 293 304 326 331 319 286 275 259 255 269 268 265 297
93 80 52 60 109 149 168 219 309 341 73 358 63 62 329 12 60 13 317 294 19 15 292 99 229 155 115 72 283 294 157 155 68 35 136 268 112 301 33 78 269 80 334 26 292 124 347 333 20 29 270 284 314 252 207 201 207 203 204 220 201 204 183 202 191 182 188 217 237 243 236 262 275 284 260 264 285 273 260 274 283 267 247 252 264 281 268
100 84 169 97 110 212 281 303 354 44 51 75 328 106 112 330 94 262 329 47 344 289 79 272 212 166 180 162 165 213 263 72 109 224 167 320 350 147 250 94 269 99 224 143 245 38 123 232 273 53 289 255 242 250 186 180 181 212 200 215 206 215 195 221 251 236 246 273 265 268 263 247 240 240 259 272 273 285 289 270 246 243 240 249 256 237 239
93 135 74 140 232 264 284 289 330 56 66 40 9 2 71 320 272 184 89 60 173 238 208 154 100 81 77 83 87 158 290 85 174 139 114 113 248 86 62 97 239 91 276 242 274 79 77 87 356 194 242 233 235 259 175 159 177 201 211 26 357 288 231 259 269 259 246 273 279 273 264 258 255 253 255 254 259 262 260 260 262 248 233 237 250 244 235
190 181 202 143 148 215 329 23 65 56 7 116 118 263 201 217 324 354 136 144 237 207 253 140 162 173 218 178 188 141 67 188 127 112 93 99 279 127 182 212 8 117 237 241 130 55 74 201 281 282 255 255 259 233 169 167 192 171 239 222 196 329 287 275 289 291 231 242 265 265 264 257 259 262 256 254 251 245 249 257 255 249 238 238 236 247 242
25 90 145 67 49 22 76 69 312 101 119 352 50 31 353 101 211 172 252 262 306 110 242 57 5 138 91 76 51 304 184 194 119 357 75 173 294 57 95 26 69 311 234 43 73 67 80 232 240 247 251 252 219 184 199 182 171 180 201 192 201 210 203 235 254 272 278 262 262 265 267 266 260 253 252 252 255 263 255 245 240 240 236 230 227 227 230
176 230 29 357 75 304 69 133 269 53 355 37 110 193 236 325 302 57 336 265 224 217 199 146 203 130 169 279 137 197 28 3 47 81 41 337 92 166 78 188 214 236 59 56 73 167 221 228 216 224 224 218 219 195 197 178 158 140 91 338 357 349 310 286 286 292 289 275 269 270 268 268 269 274 270 258 241 243 253 250 246 242 247 246 248 240 235
66 360 29 32 43 275 73 257 351 113 195 243 165 188 167 178 229 177 186 244 118 222 170 96 130 115 133 216 57 24 123 166 323 105 220 133 51 357 122 245 228 76 138 217 291 314 329 271 256 219 221 193 198 178 161 148 160 139 150 239 287 279 264 264 273 274 274 275 272 273 276 272 272 269 267 262 258 243 241 249 251 248 245 240 242 245 247
99 168 99 87 353 305 103 218 15 322 273 157 199 198 174 228 166 218 251 170 113 113 142 171 128 106 101 258 141 202 43 99 88 215 152 75 109 240 236 154 93 94 7 57 201 222 220 234 227 205 193 179 165 166 155 153 156 158 127 166 228 222 235 253 271 273 275 286 285 274 271 270 264 268 268 264 262 260 246 243 241 240 241 239 237 237 243
48 3 86 113 110 267 86 197 228 207 180 205 217 188 195 202 201 205 222 181 162 179 114 98 126 163 143 206 107 353 53 80 134 249 77 101 198 248 356 115 225 181 172 226 237 246 259 248 229 199 172 165 158 153 152 154 170 165 186 231 312 321 319 323 313 311 307 300 294 292 283 274 271 262 263 269 267 260 259 256 249 238 232 234 237 235 240
155 249 99 143 228 164 156 243 213 284 242 214 238 199 235 219 331 294 255 206 153 123 126 120 106 52 37 322 81 180 205 321 117 275 184 192 46 40 20 352 254 244 190 174 226 220 231 244 200 169 169 159 153 149 157 169 177 158 138 26 316 320 320 321 316 311 309 309 307 305 301 296 285 280 272 266 267 267 260 255 254 249 241 243 243 236 230
144 119 168 203 195 169 225 256 50 315 285 301 270 243 153 137 224 246 256 123 130 164 168 129 177 118 187 256 105 103 243 281 141 238 67 52 147 207 166 223 195 275 253 193 224 212 222 218 165 146 148 151 159 152 162 164 158 151 162 304 290 291 302 297 304 311 312 311 309 309 307 302 298 292 280 272 267 267 261 255 253 251 243 238 235 234 234
69 328 35 75 337 294 255 28 58 287 316 329 14 357 347 93 266 275 194 145 197 112 88 44 47 93 239 118 239 359 257 240 172 41 76 192 206 192 86 274 231 201 251 236 220 235 202 154 138 142 155 157 157 157 155 174 158 125 232 245 288 299 290 287 303 315 318 320 320 314 308 302 293 286 280 275 271 272 279 274 255 252 250 242 236 234 230
15 124 231 187 166 221 161 228 182 255 314 289 282 271 174 217 217 261 218 133 116 83 64 161 196 104 130 40 70 350 248 179 113 180 166 202 187 143 186 208 236 214 231 232 222 195 159 158 148 147 154 158 161 167 164 156 157 180 221 282 287 285 287 291 303 320 326 329 327 321 316 308 296 287 286 289 284 280 280 279 267 249 251 246 232 228 232
49 5 278 296 232 193 178 95 187 221 227 233 229 254 148 271 244 240 201 103 100 137 203 169 100 78 73 192 214 197 134 44 207 79 19 262 161 155 215 203 228 225 215 214 216 171 153 154 154 152 156 160 166 170 172 169 168 185 280 262 278 295 301 292 303 323 328 333 336 331 325 321 317 311 302 298 303 314 306 295 296 291 264 250 237 224 217